Tracking 17155 objects as of 29-July-2015
HD Live streaming from Space Station

COSMOS 2251 DEB

Track COSMOS 2251 DEB now!
10-day predictions
COSMOS 2251 DEB is classified as:


NORAD ID: 35451
Int'l Code: 1993-036AKV
Perigee: 570.2 km
Apogee: 729.6 km
Inclination: 73.9 °
Period: 97.6 minutes
Semi major axis: 7020 km
RCS: 0.0039 m2 (small)
Launch date: June 16, 1993
Source: Commonwealth of Independent States (former USSR) (CIS)

Note: This is SATELLITE DEBRIS
Your satellite tracking list
Your tracking list is empty





NASA's NSSDC Master Catalog

Two Line Element Set (TLE):
1 35451U 93036AKV 15208.07822173  .00000836  00000-0  11514-3 0  9997
2 35451 073.9468 117.1558 0113494 183.1193 176.9289 14.75756087336625

Source of the keplerian elements: AFSPC

N2YO: 314